Dewpoint
14 12 1 3 4 7 9 8 8 7 6 7 8 9 11 11 12 12 14 14 14 13 12 8 -11 -12 -10 3 8 8 3 11 8 3 4 6 7 9 10 9 10 10 10
13 12 5 3 5 10 13 12 8 7 6 7 8 11 11 12 14 14 14 14 13 13 12 6 -13 -14 -13 -2 5 9 10 10 5 2 1 5 6 9 7 7 8 10 10
13 12 10 4 9 10 12 11 11 12 12 13 13 12 11 12 13 13 13 13 13 13 11 -6 -15 -14 -13 -5 -1 5 5 3 6 10 9 8 7 5 9 8 7 10 11
14 13 8 5 11 11 13 12 11 11 12 13 13 13 13 12 12 12 12 12 12 11 3 -15 -15 -14 -8 -4 -1 3 3 7 11 12 11 10 11 11 10 11 9 8 10
15 13 9 7 13 12 13 13 12 11 12 9 12 13 12 9 4 9 11 11 10 3 -14 -15 -15 -13 -7 -4 -1 1 8 11 10 10 12 12 12 12 10 10 10 10 8
14 13 12 8 13 12 13 13 13 13 10 7 4 1 4 0 -1 8 9 5 -1 -13 -14 -14 -14 -8 9 -4 -1 4 10 11 10 10 10 11 11 10 9 8 9 9 10
14 13 12 7 13 13 13 13 13 13 10 9 4 -2 -3 -2 4 1 -4 -9 -14 -14 -14 -2 7 10 8 -1 4 11 11 9 9 9 9 10 10 6 9 9 10 9 9
14 14 12 9 12 14 13 13 13 13 12 8 -1 -4 -4 7 7 -4 -14 -15 -15 -18 -13 7 10 11 3 1 10 11 10 9 9 9 9 8 4 10 9 9 9 9 8
13 14 13 13 10 14 14 14 13 13 10 9 9 11 10 10 7 -12 -15 -17 -19 -18 7 7 10 10 4 7 10 9 9 8 8 6 6 8 9 9 9 8 8 9 7
14 15 14 14 13 11 14 14 13 7 11 11 11 11 11 8 -5 -13 -16 -19 -18 -7 9 10 10 1 3 9 8 8 8 8 7 8 9 11 10 10 9 8 8 8 8
13 14 15 14 14 13 13 13 12 12 11 11 11 11 11 1 -5 -14 -15 -16 -8 5 9 10 5 -0 0 7 7 7 7 7 8 9 10 10 10 10 8 7 8 8 7
2 8 13 14 14 14 14 14 13 12 10 9 11 11 10 0 -6 -11 -13 -12 -6 8 9 8 -4 -2 -2 2 6 6 6 7 7 8 8 9 8 8 8 7 7 6 3
-1 -0 2 12 13 13 14 14 14 13 12 7 9 11 4 -0 -5 -7 -10 -12 -10 8 9 -2 -3 -4 -4 5 6 6 7 7 7 6 6 8 8 7 7 7 7 6 3
-1 -1 -1 3 13 13 14 14 14 13 11 11 5 7 2 -0 -3 -4 -2 -10 -8 -3 5 -4 -5 -5 3 5 5 5 5 6 6 4 7 6 7 7 7 7 6 5 4
-3 -1 -3 -2 2 11 14 13 13 13 13 12 9 0 2 1 1 -1 -0 -8 -9 -5 -3 -1 -2 -2 2 4 5 6 6 7 6 5 6 6 6 6 7 6 6 5 5
-4 -4 -3 -3 -1 2 12 13 13 13 13 13 9 3 -0 1 4 1 0 -7 -6 -5 -3 2 3 1 2 3 5 6 6 6 6 4 6 6 5 6 6 6 3 2 1
-4 -3 -4 -3 -0 1 4 12 13 13 12 12 10 6 0 -1 4 3 -2 -5 -6 -5 -2 -1 3 3 3 3 5 5 6 6 5 3 5 3 -1 -3 -5 -8 -9 -9 -8
-2 -3 -3 -3 -2 1 4 5 12 12 11 11 10 8 5 4 5 2 -2 -0 -1 -3 -3 -2 2 3 2 2 4 5 5 5 4 2 1 1 -3 -11 -11 -11 -12 -12 -12
1 0 -3 -3 -3 -1 3 5 8 10 11 10 10 10 8 6 4 2 4 3 -0 -2 -1 -2 2 2 2 2 4 5 5 5 5 2 2 -2 -6 -12 -11 -12 -12 -12 -12
3 4 2 -2 -2 -3 2 7 7 9 11 11 10 8 7 6 3 4 4 3 -1 -1 -1 -2 -0 2 2 2 3 4 5 5 4 3 -1 -3 -7 -9 -11 -11 -12 -11 -11
-1 1 4 4 -2 -2 1 8 9 9 10 10 10 8 7 4 3 2 1 0 -1 -1 -1 -2 -2 2 3 3 3 4 4 4 3 2 1 -2 -6 -9 -11 -11 -11 -10 -10
-0 -0 2 5 2 -1 1 6 8 9 10 10 9 8 8 7 3 1 0 0 -0 -0 -0 -1 -2 2 2 3 3 4 4 3 2 0 -4 -6 -9 -9 -10 -10 -9 -8 -9
-0 2 3 5 5 -0 1 4 8 8 9 10 9 8 6 4 2 1 1 0 -0 -1 -1 -1 -2 -2 1 3 2 1 3 2 1 -1 -2 -3 -5 -7 -8 -7 -6 -7 -10
1 4 6 5 5 2 1 5 8 7 9 9 8 7 6 4 2 2 2 1 -0 -1 -1 -1 -2 -3 -4 -0 2 -1 -4 -5 0 -1 -2 -2 -4 -5 -5 -4 -5 -7 -10
3 4 5 5 4 5 1 3 8 7 9 8 7 6 5 4 2 0 -1 -1 -1 -0 -0 -2 -1 -1 -3 -4 -2 -3 -3 -2 -3 -3 -1 -2 -3 -4 -3 -3 -5 -7 -10
4 5 5 3 3 6 3 5 6 6 7 8 7 5 4 4 3 1 1 2 1 2 0 -1 -2 -2 -2 -3 -4 -3 -5 -4 -3 -5 -6 -2 -3 -3 -2 -3 -5 -7 -10
Wind_Speed
8 8 18 23 21 20 17 17 17 16 14 14 13 13 14 15 16 16 18 16 12 7 3 3 4 7 11 15 15 12 13 15 11 13 15 15 15 14 13 10 13 15 13
8 9 15 21 21 20 18 16 17 16 15 15 14 14 14 15 16 19 16 13 8 5 1 4 3 7 11 17 19 19 17 15 13 13 13 15 14 13 12 12 13 14 13
11 9 15 20 20 19 18 18 17 16 17 16 16 16 14 12 13 13 13 10 8 6 4 2 5 10 13 17 19 18 16 15 16 15 13 14 13 11 13 12 12 12 13
10 8 14 21 19 20 17 17 17 18 17 17 18 18 16 12 11 12 12 11 9 7 5 4 8 12 15 18 19 19 18 15 13 15 14 17 16 15 15 15 12 9 9
16 10 14 21 19 20 19 19 20 19 18 17 17 17 15 12 8 11 12 12 9 6 5 7 10 14 17 19 20 20 19 15 14 12 17 19 16 13 11 10 9 10 7
13 12 6 21 20 21 18 18 18 21 19 17 15 15 16 13 12 13 13 11 8 7 9 11 13 16 17 20 22 20 17 16 15 14 11 10 7 7 6 6 5 8 13
16 14 7 21 22 21 20 15 16 16 16 16 15 14 15 13 13 14 12 9 9 10 12 13 16 18 18 25 25 22 18 15 12 11 8 6 4 4 8 10 13 13 15
9 17 10 15 22 22 21 18 17 17 16 14 14 14 13 13 14 13 11 11 11 12 14 16 19 18 22 27 25 20 15 12 11 9 7 6 6 15 14 15 14 14 11
9 19 13 14 19 22 23 21 15 17 16 15 15 16 15 17 15 12 12 12 12 13 18 17 19 19 27 28 25 17 17 15 12 7 13 15 17 19 16 14 12 11 6
9 17 18 20 19 21 25 22 17 16 17 16 16 17 17 16 14 12 13 13 14 17 19 20 18 24 28 28 23 19 15 13 9 16 15 15 20 18 15 12 12 12 14
7 11 13 18 25 26 27 24 20 16 16 17 18 18 19 16 13 13 14 14 16 19 20 20 18 26 26 28 23 18 15 12 19 20 20 21 21 17 11 9 13 13 13
9 7 14 18 21 27 29 27 24 21 20 19 20 20 20 13 14 15 16 16 18 20 20 19 24 24 25 28 25 19 15 13 12 15 17 15 11 9 9 11 14 13 11
10 11 11 15 23 21 30 31 28 24 23 20 22 22 18 16 18 18 18 18 19 22 20 20 23 23 26 30 24 18 16 14 11 14 13 14 12 12 13 15 14 13 11
13 15 16 11 22 23 36 34 35 30 26 24 23 24 20 20 20 20 18 19 21 22 21 22 23 26 30 27 21 17 14 11 9 12 18 15 16 15 14 14 13 12 11
15 15 15 17 13 22 34 32 32 33 31 28 26 22 24 23 21 21 18 21 22 20 23 24 24 31 28 25 19 17 14 11 8 17 18 16 16 16 15 13 12 12 11
17 20 18 16 17 16 29 36 33 37 34 31 28 24 28 26 24 21 20 23 23 21 26 24 22 23 23 23 23 17 14 11 9 17 20 19 19 19 16 13 11 10 9
16 17 19 19 15 17 18 32 36 40 38 35 32 29 29 29 27 24 23 25 25 24 27 24 24 24 22 23 22 17 14 11 10 14 18 14 12 12 10 8 7 6 6
16 15 18 21 21 15 17 18 34 32 34 34 34 33 32 30 28 26 27 26 24 26 25 24 27 26 24 24 21 18 15 12 10 12 14 12 11 8 7 6 5 4 3
17 17 15 17 21 22 16 18 24 28 38 33 40 38 33 32 29 28 28 26 27 28 27 27 29 28 26 26 23 17 14 13 11 13 15 14 12 9 7 5 4 1 2
16 16 17 18 20 20 18 20 21 26 29 32 35 36 32 28 30 31 30 28 30 29 29 29 30 27 27 28 27 21 15 11 10 10 11 11 11 9 8 5 3 2 4
22 22 18 16 18 22 22 23 21 25 25 39 37 44 37 26 26 28 27 29 31 31 31 30 30 31 30 29 30 24 18 14 13 12 10 10 9 9 8 6 5 5 7
30 32 21 16 17 23 25 26 23 25 28 37 35 39 38 38 33 29 25 27 30 30 30 30 32 34 32 31 32 28 17 14 13 13 14 13 12 10 8 7 6 7 9
34 29 16 18 15 24 29 27 23 27 34 33 37 38 39 39 37 32 26 24 27 30 32 32 33 36 37 33 29 18 12 9 18 14 12 12 10 10 10 9 9 9 10
34 22 17 16 17 24 29 28 28 28 33 31 40 42 41 38 37 36 31 29 27 28 31 32 32 32 33 34 31 22 13 12 15 15 17 15 12 11 11 10 11 11 12
25 21 18 17 20 24 27 28 28 27 33 34 40 41 42 40 39 34 30 28 26 30 33 33 32 30 30 30 30 26 16 13 13 11 19 22 18 13 11 13 13 14 13
20 19 18 16 18 22 23 28 26 27 32 37 43 44 43 43 42 42 41 36 33 33 32 31 29 28 27 26 27 22 17 18 17 13 11 21 16 15 14 13 13 15 14
Wind_Direction
213 207 182 167 162 160 159 163 162 160 156 151 150 148 148 145 152 153 145 149 158 152 135 28 82 131 155 170 165 158 144 124 112 113 113 112 110 110 104 111 104 97 96
224 209 205 169 163 161 159 159 159 161 159 157 158 154 153 146 149 156 157 163 168 176 252 336 114 136 144 146 150 139 132 123 116 112 118 118 116 116 98 109 102 98 98
209 214 208 174 167 162 162 163 164 160 156 152 157 158 151 162 170 173 178 187 193 210 260 291 139 139 141 144 143 141 137 129 119 112 115 120 119 120 115 110 112 106 104
213 235 205 174 168 159 165 171 168 163 155 157 153 152 153 155 153 183 188 196 207 222 253 177 147 141 141 142 139 138 137 130 123 122 124 117 111 112 112 96 101 114 106
192 226 204 174 173 166 174 174 177 178 173 174 176 184 195 210 197 179 191 205 214 226 193 160 148 143 142 142 139 139 131 133 139 137 131 122 123 114 105 109 107 93 88
214 215 235 182 182 178 181 181 182 180 185 193 202 208 210 219 192 175 194 210 212 185 164 155 147 140 137 139 135 133 136 135 141 141 142 143 131 120 92 96 99 90 85
176 206 245 194 187 189 187 191 186 183 189 203 208 209 207 207 187 187 204 193 183 171 155 147 137 136 141 139 140 142 142 151 146 151 161 164 173 91 103 106 97 94 96
204 202 222 198 193 195 198 196 192 192 196 198 202 201 198 180 176 186 186 181 174 166 156 144 140 142 144 143 143 138 137 149 147 151 179 180 123 105 113 109 100 108 100
176 199 217 210 212 205 205 212 199 192 188 186 176 167 176 174 174 182 177 178 172 159 144 149 149 149 144 143 139 141 151 153 147 127 115 101 110 123 121 118 124 109 104
183 188 209 216 213 221 216 222 234 199 186 184 173 176 173 176 186 183 176 175 170 154 152 150 152 148 150 147 140 153 161 169 158 126 115 116 125 127 129 131 122 108 92
204 215 208 215 215 216 215 223 233 237 193 181 183 183 188 189 185 181 176 170 164 154 154 158 158 150 153 154 149 151 156 160 142 131 126 121 124 129 124 118 112 106 94
235 253 251 230 226 220 218 217 221 229 220 195 189 186 199 192 187 181 178 173 164 156 156 158 144 149 150 151 150 163 167 172 168 172 157 151 155 150 140 120 104 100 96
270 250 275 255 236 234 226 215 218 217 228 214 198 192 200 193 187 183 183 177 167 161 161 151 148 149 150 152 153 167 166 174 179 174 158 136 149 131 120 111 103 99 95
276 268 261 271 239 237 219 218 219 219 230 229 218 202 197 192 192 189 188 180 174 173 163 154 150 147 149 154 162 166 175 191 186 161 134 140 129 124 118 110 103 97 92
285 281 275 266 264 256 223 227 223 217 224 227 224 210 200 199 199 194 193 186 178 174 159 155 150 153 156 153 163 175 178 184 179 155 144 145 133 121 118 111 103 97 87
288 277 274 281 266 272 237 232 233 235 225 225 218 210 206 206 204 200 196 186 179 172 165 161 158 157 163 163 175 180 178 185 179 168 152 150 137 135 130 123 112 99 86
293 285 272 265 267 266 260 237 223 231 223 220 216 208 210 211 207 206 196 184 179 168 170 169 166 169 168 167 172 176 181 185 170 176 163 161 152 156 152 128 116 102 82
307 304 274 266 255 257 263 255 232 223 209 208 216 203 206 208 209 201 192 183 182 174 176 176 171 172 176 172 169 171 172 179 176 168 171 171 169 161 150 143 128 102 67
312 302 286 259 255 253 251 254 244 234 216 206 202 199 203 205 206 196 192 190 187 182 183 181 177 182 175 171 170 163 169 172 172 163 178 183 182 176 174 169 165 149 355
310 311 297 263 259 259 248 246 238 241 225 214 229 199 198 199 194 193 198 198 190 186 185 185 183 184 179 175 170 167 164 175 189 189 184 178 180 185 190 198 211 258 306
316 302 287 294 248 249 238 233 230 228 228 210 205 197 198 188 192 197 203 198 194 193 192 191 185 180 176 179 171 167 167 179 192 201 217 226 209 203 209 221 243 282 309
319 319 278 267 263 244 237 237 233 216 225 226 207 199 201 203 195 193 203 204 199 197 198 195 190 181 183 185 180 172 154 173 197 209 206 207 211 215 224 243 267 287 297
320 321 285 253 252 241 239 232 225 218 218 208 208 203 193 192 185 186 193 210 206 202 200 198 192 190 186 186 198 179 160 185 183 199 215 220 218 225 231 249 267 286 302
324 318 301 269 245 244 239 233 224 213 211 214 208 201 202 203 196 196 191 199 203 199 199 199 197 198 197 191 193 197 195 192 176 183 207 222 227 237 243 259 280 290 305
325 324 313 280 258 243 238 234 226 224 214 208 204 201 201 196 197 187 187 194 196 205 205 203 200 202 203 202 198 192 194 185 185 185 194 206 217 227 242 267 279 294 303
331 329 321 306 251 239 235 228 232 223 220 206 204 199 198 199 197 191 190 189 188 204 204 203 205 203 203 204 200 200 203 192 194 196 190 199 209 219 235 255 284 290 300
Height
1500 1502 1503 1504 1507 1509 1512 1514 1516 1518 1520 1522 1524 1525 1527 1528 1530 1532 1534 1536 1537 1538 1539 1541 1541 1541 1542 1543 1546 1548 1549 1549 1550 1551 1552 1553 1554 1554 1554 1555 1556 1556 1556
1499 1501 1503 1505 1507 1510 1513 1514 1517 1519 1520 1522 1524 1526 1528 1529 1531 1533 1534 1536 1537 1538 1539 1540 1540 1541 1542 1544 1546 1548 1550 1550 1552 1552 1553 1554 1555 1555 1556 1557 1558 1558 1557
1498 1500 1502 1504 1507 1510 1513 1515 1517 1519 1520 1522 1524 1526 1528 1530 1532 1533 1534 1535 1537 1538 1539 1539 1540 1541 1542 1544 1547 1549 1550 1551 1553 1554 1555 1555 1556 1557 1558 1558 1558 1558 1558
1499 1500 1502 1504 1508 1511 1514 1516 1517 1519 1521 1523 1524 1526 1527 1528 1530 1532 1534 1535 1536 1538 1538 1538 1539 1541 1543 1545 1547 1549 1551 1553 1554 1554 1556 1556 1557 1558 1559 1559 1559 1559 1559
1497 1500 1502 1504 1508 1511 1514 1516 1517 1519 1521 1522 1524 1525 1526 1527 1529 1531 1533 1534 1535 1536 1537 1538 1539 1541 1543 1546 1548 1550 1552 1553 1554 1556 1557 1557 1558 1559 1559 1560 1560 1560 1560
1496 1500 1503 1505 1508 1511 1513 1515 1517 1518 1520 1522 1523 1524 1525 1526 1527 1530 1531 1532 1534 1535 1536 1537 1539 1541 1543 1546 1549 1551 1553 1553 1555 1556 1557 1558 1559 1559 1560 1561 1560 1560 1560
1497 1501 1503 1505 1507 1510 1512 1514 1516 1517 1519 1520 1521 1523 1524 1525 1526 1527 1529 1531 1532 1534 1536 1537 1539 1542 1543 1547 1549 1551 1552 1554 1556 1557 1558 1559 1560 1560 1560 1561 1561 1561 1561
1497 1500 1502 1504 1506 1509 1510 1513 1515 1516 1517 1519 1520 1521 1522 1524 1524 1525 1527 1530 1532 1533 1535 1537 1540 1543 1544 1547 1550 1552 1553 1555 1556 1557 1558 1559 1559 1561 1561 1562 1563 1562 1562
1497 1499 1501 1503 1506 1507 1509 1511 1513 1514 1515 1517 1519 1521 1522 1522 1524 1524 1527 1529 1531 1533 1535 1537 1540 1542 1545 1548 1552 1553 1554 1556 1556 1557 1558 1558 1560 1561 1562 1562 1563 1563 1563
1498 1499 1501 1501 1503 1505 1506 1508 1511 1512 1514 1516 1518 1520 1521 1521 1522 1524 1526 1528 1530 1532 1535 1537 1539 1541 1545 1549 1552 1553 1553 1555 1557 1559 1559 1560 1561 1562 1562 1562 1563 1564 1564
1498 1499 1498 1499 1500 1501 1504 1505 1509 1511 1512 1514 1517 1518 1519 1520 1522 1524 1526 1528 1530 1532 1534 1536 1537 1541 1545 1549 1552 1552 1553 1555 1558 1560 1561 1561 1562 1563 1564 1565 1564 1564 1564
1494 1496 1496 1498 1499 1499 1501 1503 1505 1507 1509 1511 1514 1516 1517 1519 1521 1523 1525 1527 1530 1533 1534 1536 1538 1542 1545 1549 1552 1551 1553 1556 1558 1560 1561 1563 1564 1565 1565 1564 1564 1564 1564
1493 1493 1494 1495 1496 1497 1498 1498 1502 1504 1505 1508 1511 1513 1514 1517 1518 1521 1523 1525 1529 1532 1534 1536 1538 1542 1545 1549 1551 1551 1554 1555 1558 1559 1561 1563 1564 1565 1565 1565 1565 1565 1565
1491 1491 1491 1493 1493 1493 1494 1495 1498 1499 1502 1504 1506 1509 1512 1514 1517 1519 1522 1524 1527 1530 1533 1537 1539 1542 1546 1549 1550 1551 1553 1555 1557 1559 1562 1563 1564 1565 1566 1567 1567 1566 1566
1488 1488 1488 1489 1490 1491 1489 1492 1493 1495 1498 1501 1503 1506 1509 1511 1515 1518 1521 1524 1526 1530 1533 1536 1539 1542 1545 1549 1550 1551 1553 1555 1557 1559 1561 1564 1565 1566 1567 1568 1568 1568 1568
1485 1485 1486 1485 1486 1487 1488 1488 1489 1493 1494 1497 1500 1503 1505 1508 1513 1516 1519 1523 1526 1529 1533 1536 1539 1542 1545 1548 1549 1551 1553 1555 1557 1558 1561 1562 1563 1565 1566 1567 1567 1567 1568
1481 1482 1482 1482 1483 1483 1484 1486 1485 1489 1489 1489 1495 1498 1500 1504 1509 1514 1517 1520 1524 1528 1533 1536 1539 1542 1545 1548 1548 1551 1552 1554 1557 1559 1560 1562 1564 1564 1565 1566 1567 1567 1567
1478 1477 1478 1478 1479 1479 1481 1483 1484 1484 1483 1488 1492 1495 1497 1502 1507 1510 1514 1518 1522 1526 1530 1534 1537 1540 1544 1548 1549 1550 1552 1554 1556 1558 1560 1562 1564 1565 1565 1566 1566 1567 1567
1475 1474 1473 1474 1475 1476 1478 1479 1481 1481 1481 1483 1487 1492 1496 1500 1505 1509 1511 1516 1520 1524 1527 1532 1536 1538 1542 1547 1550 1551 1553 1554 1556 1558 1559 1561 1563 1564 1565 1565 1566 1566 1566
1472 1471 1469 1469 1470 1471 1473 1474 1476 1477 1480 1479 1484 1490 1493 1500 1502 1508 1513 1515 1519 1522 1525 1529 1534 1538 1540 1543 1548 1552 1554 1555 1556 1558 1560 1561 1562 1563 1564 1565 1565 1565 1565
1469 1467 1464 1464 1465 1466 1467 1467 1471 1472 1476 1477 1479 1484 1485 1498 1500 1505 1511 1515 1518 1520 1524 1528 1532 1535 1537 1540 1543 1550 1555 1557 1558 1559 1559 1561 1561 1562 1563 1563 1563 1564 1564
1463 1460 1457 1458 1459 1460 1462 1463 1465 1468 1472 1477 1476 1481 1484 1487 1495 1500 1504 1514 1517 1519 1524 1527 1528 1532 1534 1536 1539 1545 1552 1557 1557 1558 1559 1559 1560 1561 1561 1561 1562 1562 1561
1457 1452 1450 1451 1452 1454 1455 1457 1460 1463 1466 1469 1472 1476 1482 1483 1485 1495 1502 1509 1514 1517 1521 1525 1525 1527 1530 1533 1538 1540 1546 1549 1553 1556 1557 1558 1559 1559 1559 1559 1559 1559 1560
1452 1448 1446 1445 1446 1447 1450 1452 1455 1457 1460 1464 1468 1472 1476 1481 1484 1488 1484 1502 1507 1513 1520 1523 1522 1525 1527 1529 1534 1537 1539 1540 1546 1552 1554 1555 1557 1557 1558 1558 1557 1557 1556
1448 1444 1442 1440 1440 1441 1444 1448 1451 1455 1458 1460 1464 1468 1472 1477 1481 1486 1490 1499 1502 1511 1519 1519 1520 1522 1524 1527 1532 1535 1538 1538 1541 1544 1546 1551 1553 1554 1555 1555 1554 1556 1552
1445 1441 1438 1434 1433 1437 1440 1444 1448 1451 1454 1457 1460 1465 1470 1474 1477 1482 1490 1495 1499 1512 1515 1516 1518 1521 1523 1527 1532 1535 1536 1537 1538 1541 1542 1547 1551 1554 1554 1554 1554 1554 1550